| time (UTC) | temp F | wind direction | speed MPH | gust MPH | rain 1hr in | rain 24hr in | rain mn in | humidity % | barometer mb |
| 20260507150021 | 64 | 51 | 2.0 | 13.0 | 0.00 | 0.01 | 0.00 | 88 | 1016.2 |
| 20260507145507 | 64 | 9 | 2.0 | 13.0 | 0.00 | 0.01 | 0.00 | 88 | 1016.2 |
| 20260507145009 | 64 | 9 | 4.0 | 13.0 | 0.00 | 0.01 | 0.00 | 88 | 1016.3 |
| 20260507144524 | 64 | 15 | 2.0 | 12.0 | 0.00 | 0.01 | 0.00 | 88 | 1016.1 |
| 20260507144011 | 64 | 19 | 3.0 | 12.0 | 0.00 | 0.01 | 0.00 | 88 | 1016.2 |
| 20260507143508 | 64 | 80 | 3.0 | 9.0 | 0.00 | 0.01 | 0.00 | 88 | 1016.1 |
| 20260507143014 | 64 | 45 | 4.0 | 9.0 | 0.00 | 0.01 | 0.00 | 88 | 1016.0 |
| 20260507142507 | 64 | 13 | 3.0 | 8.0 | 0.00 | 0.01 | 0.00 | 89 | 1015.8 |
| 20260507142010 | 64 | 56 | 2.0 | 8.0 | 0.00 | 0.01 | 0.00 | 89 | 1015.6 |
| 20260507141526 | 64 | 34 | 2.0 | 8.0 | 0.00 | 0.01 | 0.00 | 89 | 1015.6 |
| 20260507141007 | 64 | 41 | 1.0 | 8.0 | 0.00 | 0.01 | 0.00 | 89 | 1015.7 |
| 20260507140503 | 64 | 15 | 2.0 | 9.0 | 0.00 | 0.01 | 0.00 | 89 | 1015.4 |
| 20260507140017 | 64 | 44 | 3.0 | 9.0 | 0.00 | 0.01 | 0.00 | 88 | 1015.2 |
| 20260507135506 | 64 | 54 | 3.0 | 10.0 | 0.00 | 0.01 | 0.00 | 88 | 1015.1 |
| 20260507135011 | 65 | 225 | 4.0 | 11.0 | 0.00 | 0.01 | 0.00 | 89 | 1015.0 |
| 20260507134529 | 64 | 78 | 2.0 | 11.0 | 0.00 | 0.01 | 0.00 | 89 | 1014.9 |
| 20260507134012 | 65 | 32 | 3.0 | 11.0 | 0.00 | 0.01 | 0.00 | 89 | 1015.1 |
| 20260507133512 | 65 | 78 | 4.0 | 11.0 | 0.00 | 0.01 | 0.00 | 89 | 1015.1 |
| 20260507133008 | 65 | 17 | 3.0 | 11.0 | 0.00 | 0.01 | 0.00 | 89 | 1015.2 |
| 20260507132507 | 65 | 98 | 2.0 | 10.0 | 0.00 | 0.01 | 0.00 | 89 | 1015.6 |
| 20260507132010 | 65 | 46 | 3.0 | 10.0 | 0.00 | 0.01 | 0.00 | 89 | 1015.9 |
| 20260507131519 | 65 | 105 | 3.0 | 10.0 | 0.00 | 0.01 | 0.00 | 89 | 1016.0 |
| 20260507131010 | 65 | 17 | 3.0 | 9.0 | 0.00 | 0.01 | 0.00 | 89 | 1016.0 |
| 20260507130511 | 65 | 70 | 3.0 | 9.0 | 0.00 | 0.01 | 0.00 | 89 | 1015.9 |
| 20260507130026 | 65 | 17 | 2.0 | 8.0 | 0.00 | 0.01 | 0.00 | 89 | 1015.9 |
| 20260507125516 | 65 | 116 | 2.0 | 8.0 | 0.00 | 0.01 | 0.00 | 89 | 1015.9 |
| 20260507125003 | 65 | 325 | 2.0 | 11.0 | 0.00 | 0.01 | 0.00 | 89 | 1015.8 |
| 20260507124509 | 65 | 33 | 3.0 | 11.0 | 0.00 | 0.01 | 0.00 | 89 | 1015.8 |
| 20260507124008 | 65 | 21 | 3.0 | 9.0 | 0.00 | 0.01 | 0.00 | 89 | 1015.7 |
| 20260507123509 | 65 | 83 | 2.0 | 9.0 | 0.00 | 0.01 | 0.00 | 89 | 1015.8 |
| 20260507123021 | 65 | 18 | 1.0 | 8.0 | 0.00 | 0.01 | 0.00 | 89 | 1015.5 |
| 20260507122509 | 65 | 22 | 2.0 | 8.0 | 0.00 | 0.01 | 0.00 | 89 | 1015.3 |
| 20260507122012 | 65 | 338 | 2.0 | 5.0 | 0.00 | 0.01 | 0.00 | 89 | 1015.1 |
| 20260507121526 | 65 | 302 | 1.0 | 8.0 | 0.00 | 0.01 | 0.00 | 89 | 1015.1 |
| 20260507121004 | 65 | 51 | 2.0 | 8.0 | 0.00 | 0.01 | 0.00 | 89 | 1015.0 |
| 20260507120511 | 65 | 36 | 2.0 | 9.0 | 0.00 | 0.01 | 0.00 | 89 | 1014.8 |
| 20260507120015 | 65 | 32 | 2.0 | 9.0 | 0.00 | 0.01 | 0.00 | 89 | 1014.7 |
| 20260507115509 | 66 | 44 | 2.0 | 8.0 | 0.00 | 0.01 | 0.00 | 89 | 1014.6 |
| 20260507115007 | 66 | 58 | 2.0 | 10.0 | 0.00 | 0.01 | 0.00 | 89 | 1014.8 |
| 20260507114529 | 66 | 159 | 2.0 | 10.0 | 0.00 | 0.01 | 0.00 | 89 | 1014.6 |
| 20260507114007 | 66 | 265 | 2.0 | 10.0 | 0.00 | 0.01 | 0.00 | 89 | 1014.3 |
| 20260507113512 | 66 | 347 | 3.0 | 10.0 | 0.00 | 0.01 | 0.00 | 89 | 1013.7 |
| 20260507113028 | 66 | 24 | 2.0 | 9.0 | 0.00 | 0.01 | 0.00 | 89 | 1013.8 |
| 20260507112510 | 66 | 41 | 2.0 | 9.0 | 0.00 | 0.01 | 0.00 | 88 | 1013.9 |
| 20260507112007 | 66 | 93 | 1.0 | 7.0 | 0.00 | 0.01 | 0.00 | 88 | 1013.9 |
| 20260507111530 | 66 | 346 | 2.0 | 7.0 | 0.00 | 0.01 | 0.00 | 88 | 1013.9 |
| 20260507111010 | 66 | 109 | 1.0 | 6.0 | 0.00 | 0.01 | 0.00 | 88 | 1013.8 |
| 20260507110511 | 66 | 79 | 1.0 | 5.0 | 0.00 | 0.01 | 0.00 | 88 | 1013.7 |
| 20260507110030 | 66 | 342 | 1.0 | 6.0 | 0.00 | 0.01 | 0.00 | 88 | 1013.9 |
| 20260507105508 | 66 | 9 | 1.0 | 6.0 | 0.00 | 0.01 | 0.00 | 88 | 1013.8 |
| 20260507105010 | 66 | 46 | 2.0 | 5.0 | 0.00 | 0.01 | 0.00 | 88 | 1013.8 |
| 20260507104510 | 66 | 41 | 1.0 | 5.0 | 0.00 | 0.01 | 0.00 | 88 | 1013.8 |
| 20260507104007 | 66 | 34 | 1.0 | 3.0 | 0.00 | 0.01 | 0.00 | 88 | 1013.8 |
| 20260507103507 | 66 | 93 | 1.0 | 4.0 | 0.00 | 0.01 | 0.00 | 88 | 1013.5 |
| 20260507103023 | 66 | 93 | 1.0 | 4.0 | 0.00 | 0.01 | 0.00 | 88 | 1013.7 |
| 20260507102507 | 66 | 56 | 1.0 | 4.0 | 0.00 | 0.01 | 0.00 | 88 | 1013.6 |
| 20260507102010 | 66 | 30 | 0.0 | 7.0 | 0.00 | 0.01 | 0.00 | 88 | 1013.7 |
| 20260507101524 | 66 | 338 | 2.0 | 7.0 | 0.00 | 0.01 | 0.00 | 89 | 1013.5 |
| 20260507101014 | 66 | 349 | 2.0 | 6.0 | 0.00 | 0.01 | 0.00 | 89 | 1013.6 |
| 20260507100503 | 66 | 16 | 1.0 | 4.0 | 0.00 | 0.01 | 0.00 | 89 | 1013.4 |
| 20260507100016 | 66 | 309 | 0.0 | 4.0 | 0.00 | 0.01 | 0.00 | 89 | 1013.4 |
| 20260507095509 | 66 | 107 | 1.0 | 4.0 | 0.00 | 0.01 | 0.00 | 89 | 1013.3 |
| 20260507095010 | 66 | 51 | 1.0 | 4.0 | 0.00 | 0.01 | 0.00 | 89 | 1013.4 |
| 20260507094522 | 66 | 316 | 0.0 | 6.0 | 0.00 | 0.01 | 0.00 | 89 | 1013.3 |
| 20260507094007 | 66 | 19 | 1.0 | 8.0 | 0.00 | 0.01 | 0.00 | 89 | 1013.2 |
| 20260507093509 | 65 | 26 | 3.0 | 8.0 | 0.00 | 0.01 | 0.00 | 89 | 1013.1 |
| 20260507093028 | 66 | 325 | 1.0 | 4.0 | 0.00 | 0.01 | 0.00 | 89 | 1013.1 |
| 20260507092504 | 65 | 137 | 0.0 | 8.0 | 0.00 | 0.01 | 0.00 | 88 | 1013.0 |
| 20260507092007 | 65 | 83 | 2.0 | 8.0 | 0.00 | 0.01 | 0.00 | 89 | 1012.5 |
| 20260507091520 | 66 | 85 | 3.0 | 7.0 | 0.00 | 0.01 | 0.00 | 88 | 1012.7 |
| 20260507091009 | 66 | 213 | 1.0 | 4.0 | 0.00 | 0.01 | 0.00 | 88 | 1012.8 |
| 20260507090511 | 66 | 317 | 2.0 | 9.0 | 0.00 | 0.01 | 0.00 | 88 | 1012.9 |
| 20260507090035 | 66 | 61 | 2.0 | 9.0 | 0.00 | 0.01 | 0.00 | 88 | 1012.8 |
| 20260507085508 | 66 | 334 | 1.0 | 8.0 | 0.00 | 0.01 | 0.00 | 88 | 1012.9 |
| 20260507085009 | 66 | 80 | 1.0 | 8.0 | 0.00 | 0.01 | 0.00 | 88 | 1013.0 |
| 20260507084524 | 66 | 9 | 1.0 | 6.0 | 0.00 | 0.01 | 0.00 | 88 | 1013.0 |
| 20260507084009 | 66 | 42 | 2.0 | 6.0 | 0.00 | 0.01 | 0.00 | 88 | 1013.1 |
| 20260507083507 | 66 | 80 | 2.0 | 6.0 | 0.00 | 0.01 | 0.00 | 88 | 1013.2 |
| 20260507083020 | 66 | 93 | 1.0 | 5.0 | 0.00 | 0.01 | 0.00 | 88 | 1013.2 |
| 20260507082507 | 66 | 13 | 1.0 | 11.0 | 0.00 | 0.01 | 0.00 | 88 | 1013.3 |
| 20260507082018 | 66 | 51 | 2.0 | 11.0 | 0.00 | 0.01 | 0.00 | 88 | 1013.2 |
| 20260507081528 | 66 | 40 | 2.0 | 8.0 | 0.00 | 0.01 | 0.00 | 88 | 1013.1 |
| 20260507081010 | 66 | 26 | 1.0 | 10.0 | 0.00 | 0.01 | 0.00 | 87 | 1013.0 |
| 20260507080506 | 66 | 111 | 4.0 | 10.0 | 0.00 | 0.01 | 0.00 | 87 | 1013.1 |
| 20260507080017 | 66 | 17 | 2.0 | 8.0 | 0.00 | 0.01 | 0.00 | 87 | 1013.0 |
| 20260507075508 | 66 | 314 | 2.0 | 8.0 | 0.00 | 0.01 | 0.00 | 87 | 1013.1 |
| 20260507075006 | 66 | 325 | 3.0 | 8.0 | 0.00 | 0.01 | 0.00 | 87 | 1013.1 |
| 20260507074536 | 66 | 9 | 1.0 | 5.0 | 0.00 | 0.01 | 0.00 | 88 | 1013.1 |
| 20260507074008 | 66 | 9 | 1.0 | 6.0 | 0.00 | 0.01 | 0.00 | 87 | 1013.0 |
| 20260507073510 | 66 | 316 | 2.0 | 6.0 | 0.00 | 0.01 | 0.00 | 87 | 1013.2 |
| 20260507073026 | 66 | 80 | 2.0 | 8.0 | 0.00 | 0.01 | 0.00 | 87 | 1013.2 |
| 20260507072507 | 66 | 90 | 2.0 | 8.0 | 0.00 | 0.01 | 0.00 | 87 | 1013.3 |
| 20260507072011 | 66 | 51 | 1.0 | 8.0 | 0.00 | 0.01 | 0.00 | 87 | 1013.3 |
| 20260507071518 | 66 | 313 | 2.0 | 8.0 | 0.00 | 0.01 | 0.00 | 87 | 1013.4 |
| 20260507071009 | 66 | 34 | 1.0 | 10.0 | 0.00 | 0.01 | 0.00 | 87 | 1013.2 |
| 20260507070511 | 66 | 26 | 1.0 | 10.0 | 0.00 | 0.01 | 0.00 | 87 | 1013.4 |
| 20260507070012 | 66 | 22 | 2.0 | 10.0 | 0.00 | 0.01 | 0.00 | 87 | 1013.7 |
| 20260507065503 | 66 | 269 | 3.0 | 10.0 | 0.00 | 0.01 | 0.00 | 87 | 1013.6 |
| 20260507065003 | 67 | 295 | 2.0 | 9.0 | 0.00 | 0.01 | 0.00 | 87 | 1013.5 |
| 20260507064513 | 67 | 28 | 2.0 | 9.0 | 0.00 | 0.01 | 0.00 | 87 | 1013.5 |
| 20260507064007 | 67 | 67 | 2.0 | 9.0 | 0.00 | 0.01 | 0.00 | 87 | 1013.5 |
| 20260507063508 | 67 | 338 | 3.0 | 9.0 | 0.00 | 0.01 | 0.00 | 87 | 1013.5 |
| 20260507063025 | 67 | 317 | 2.0 | 9.0 | 0.00 | 0.01 | 0.00 | 87 | 1013.5 |
| 20260507062510 | 67 | 27 | 2.0 | 12.0 | 0.00 | 0.01 | 0.00 | 87 | 1013.3 |
| 20260507062010 | 67 | 341 | 2.0 | 12.0 | 0.00 | 0.01 | 0.00 | 87 | 1013.2 |
| 20260507061507 | 67 | 54 | 4.0 | 12.0 | 0.00 | 0.01 | 0.00 | 87 | 1013.5 |
| 20260507061006 | 67 | 319 | 3.0 | 10.0 | 0.00 | 0.01 | 0.00 | 87 | 1013.5 |
| 20260507060506 | 67 | 34 | 2.0 | 10.0 | 0.00 | 0.01 | 0.00 | 87 | 1013.2 |
| 20260507060017 | 67 | 9 | 1.0 | 10.0 | 0.00 | 0.01 | 0.00 | 87 | 1013.1 |
| 20260507055506 | 67 | 13 | 3.0 | 10.0 | 0.00 | 0.01 | 0.00 | 87 | 1013.0 |
| 20260507055011 | 67 | 9 | 2.0 | 9.0 | 0.00 | 0.01 | 0.00 | 87 | 1013.0 |
| 20260507054522 | 67 | 34 | 2.0 | 12.0 | 0.00 | 0.01 | 0.00 | 87 | 1013.1 |
| 20260507054013 | 67 | 349 | 4.0 | 12.0 | 0.00 | 0.01 | 0.00 | 87 | 1013.2 |
| 20260507053504 | 67 | 16 | 4.0 | 10.0 | 0.00 | 0.01 | 0.00 | 87 | 1013.2 |
| 20260507053010 | 67 | 16 | 3.0 | 10.0 | 0.00 | 0.01 | 0.00 | 87 | 1013.1 |
| 20260507052503 | 67 | 93 | 2.0 | 9.0 | 0.00 | 0.01 | 0.00 | 87 | 1012.9 |
| 20260507052008 | 67 | 30 | 2.0 | 10.0 | 0.00 | 0.01 | 0.00 | 87 | 1012.8 |
| 20260507051519 | 68 | 344 | 3.0 | 10.0 | 0.00 | 0.01 | 0.00 | 87 | 1012.8 |
| 20260507051007 | 68 | 29 | 4.0 | 10.0 | 0.00 | 0.01 | 0.00 | 87 | 1012.7 |
| 20260507050514 | 68 | 26 | 3.0 | 12.0 | 0.00 | 0.01 | 0.00 | 87 | 1012.8 |
| 20260507050025 | 68 | 350 | 3.0 | 12.0 | 0.00 | 0.01 | 0.00 | 87 | 1012.9 |
| 20260507045503 | 68 | 19 | 2.0 | 9.0 | 0.00 | 0.01 | 0.01 | 87 | 1012.8 |
| 20260507045003 | 68 | 321 | 3.0 | 9.0 | 0.00 | 0.01 | 0.01 | 87 | 1012.9 |
| 20260507044510 | 68 | 18 | 3.0 | 8.0 | 0.00 | 0.01 | 0.01 | 87 | 1012.8 |
| 20260507044008 | 69 | 316 | 1.0 | 9.0 | 0.00 | 0.01 | 0.01 | 86 | 1012.7 |
| 20260507043507 | 69 | 93 | 3.0 | 10.0 | 0.00 | 0.01 | 0.01 | 86 | 1012.7 |
| 20260507043020 | 69 | 325 | 1.0 | 10.0 | 0.00 | 0.01 | 0.01 | 86 | 1012.7 |
| 20260507042508 | 69 | 342 | 4.0 | 12.0 | 0.00 | 0.01 | 0.01 | 86 | 1012.6 |
| 20260507042010 | 69 | 309 | 4.0 | 12.0 | 0.00 | 0.01 | 0.01 | 86 | 1012.6 |
| 20260507041510 | 69 | 34 | 3.0 | 10.0 | 0.00 | 0.01 | 0.01 | 86 | 1012.7 |
| 20260507041008 | 69 | 325 | 1.0 | 10.0 | 0.00 | 0.01 | 0.01 | 86 | 1012.7 |
| 20260507040506 | 70 | 347 | 3.0 | 10.0 | 0.00 | 0.01 | 0.01 | 86 | 1012.7 |
| 20260507040017 | 70 | 342 | 2.0 | 8.0 | 0.00 | 0.01 | 0.01 | 85 | 1012.9 |
| 20260507035507 | 70 | 93 | 3.0 | 12.0 | 0.00 | 0.01 | 0.01 | 85 | 1012.9 |
| 20260507035011 | 70 | 51 | 2.0 | 12.0 | 0.00 | 0.01 | 0.01 | 85 | 1012.9 |
| 20260507034544 | 70 | 341 | 2.0 | 10.0 | 0.00 | 0.01 | 0.01 | 85 | 1012.8 |
| 20260507034009 | 70 | 323 | 4.0 | 10.0 | 0.00 | 0.01 | 0.01 | 85 | 1012.7 |
| 20260507033507 | 71 | 302 | 4.0 | 11.0 | 0.00 | 0.01 | 0.01 | 85 | 1012.6 |
| 20260507033010 | 71 | 19 | 5.0 | 11.0 | 0.00 | 0.01 | 0.01 | 85 | 1012.6 |
| 20260507032507 | 71 | 349 | 4.0 | 10.0 | 0.00 | 0.01 | 0.01 | 85 | 1012.4 |
| 20260507032007 | 71 | 63 | 3.0 | 12.0 | 0.00 | 0.01 | 0.01 | 85 | 1012.2 |
| 20260507031520 | 71 | 16 | 4.0 | 12.0 | 0.00 | 0.01 | 0.01 | 86 | 1012.1 |
| 20260507031007 | 71 | 30 | 4.0 | 13.0 | 0.00 | 0.01 | 0.01 | 86 | 1012.1 |
| 20260507030511 | 71 | 265 | 2.0 | 13.0 | 0.00 | 0.01 | 0.01 | 85 | 1012.0 |
| 20260507030027 | 71 | 332 | 3.0 | 13.0 | 0.00 | 0.01 | 0.01 | 85 | 1011.9 |
| 20260507025505 | 72 | 38 | 3.0 | 10.0 | 0.00 | 0.01 | 0.01 | 85 | 1011.9 |
| 20260507025004 | 72 | 29 | 3.0 | 10.0 | 0.00 | 0.01 | 0.01 | 85 | 1011.7 |
| 20260507024526 | 72 | 309 | 2.0 | 10.0 | 0.00 | 0.01 | 0.01 | 86 | 1011.7 |
| 20260507024008 | 72 | 291 | 4.0 | 11.0 | 0.00 | 0.01 | 0.01 | 86 | 1011.7 |
| 20260507023512 | 72 | 43 | 3.0 | 11.0 | 0.00 | 0.01 | 0.01 | 86 | 1011.5 |
| 20260507023022 | 72 | 22 | 3.0 | 11.0 | 0.00 | 0.01 | 0.01 | 85 | 1011.4 |
| 20260507022508 | 72 | 321 | 4.0 | 11.0 | 0.00 | 0.01 | 0.01 | 85 | 1011.2 |
| 20260507022015 | 72 | 25 | 3.0 | 11.0 | 0.00 | 0.01 | 0.01 | 86 | 1011.1 |
| 20260507021508 | 72 | 295 | 3.0 | 11.0 | 0.00 | 0.01 | 0.01 | 85 | 1011.1 |
| 20260507021007 | 72 | 334 | 4.0 | 11.0 | 0.00 | 0.01 | 0.01 | 85 | 1010.9 |
| 20260507020507 | 72 | 26 | 3.0 | 11.0 | 0.00 | 0.01 | 0.01 | 85 | 1010.8 |
| 20260507020016 | 72 | 33 | 5.0 | 11.0 | 0.00 | 0.01 | 0.01 | 85 | 1010.8 |
| 20260507015513 | 73 | 15 | 3.0 | 9.0 | 0.00 | 0.01 | 0.01 | 85 | 1010.9 |
| 20260507015008 | 73 | 27 | 3.0 | 13.0 | 0.00 | 0.01 | 0.01 | 86 | 1010.9 |
| 20260507014536 | 73 | 9 | 4.0 | 13.0 | 0.00 | 0.01 | 0.01 | 86 | 1010.7 |
| 20260507014009 | 73 | 298 | 4.0 | 10.0 | 0.00 | 0.01 | 0.01 | 86 | 1010.6 |
| 20260507013504 | 73 | 339 | 2.0 | 9.0 | 0.00 | 0.01 | 0.01 | 87 | 1010.6 |
| 20260507013013 | 73 | 18 | 3.0 | 9.0 | 0.00 | 0.01 | 0.01 | 86 | 1010.4 |
| 20260507012509 | 73 | 28 | 3.0 | 10.0 | 0.00 | 0.01 | 0.01 | 87 | 1010.4 |
| 20260507012008 | 73 | 338 | 3.0 | 11.0 | 0.00 | 0.01 | 0.01 | 87 | 1010.3 |
| 20260507011535 | 74 | 344 | 3.0 | 15.0 | 0.00 | 0.01 | 0.01 | 87 | 1010.1 |
| 20260507011008 | 74 | 9 | 4.0 | 15.0 | 0.00 | 0.01 | 0.01 | 87 | 1010.1 |
| 20260507010510 | 74 | 20 | 4.0 | 14.0 | 0.01 | 0.01 | 0.01 | 87 | 1010.1 |
| 20260507010030 | 74 | 254 | 5.0 | 14.0 | 0.01 | 0.01 | 0.01 | 87 | 1010.0 |
| 20260507005504 | 75 | 88 | 3.0 | 10.0 | 0.01 | 0.01 | 0.01 | 88 | 1009.9 |
| 20260507005011 | 75 | 44 | 2.0 | 8.0 | 0.01 | 0.01 | 0.01 | 88 | 1009.9 |
| 20260507004513 | 75 | 9 | 2.0 | 8.0 | 0.01 | 0.01 | 0.01 | 88 | 1009.7 |
| 20260507004009 | 75 | 9 | 2.0 | 5.0 | 0.01 | 0.01 | 0.01 | 88 | 1009.5 |
| 20260507003509 | 75 | 319 | 2.0 | 7.0 | 0.01 | 0.01 | 0.01 | 88 | 1009.5 |
| 20260507003023 | 76 | 31 | 2.0 | 9.0 | 0.01 | 0.01 | 0.01 | 88 | 1009.4 |
| 20260507002512 | 76 | 288 | 3.0 | 9.0 | 0.01 | 0.01 | 0.01 | 88 | 1009.4 |
| 20260507002011 | 77 | 321 | 1.0 | 8.0 | 0.01 | 0.01 | 0.01 | 87 | 1009.2 |
| 20260507001510 | 77 | 34 | 2.0 | 8.0 | 0.01 | 0.01 | 0.01 | 86 | 1009.1 |
| 20260507001005 | 78 | 316 | 1.0 | 11.0 | 0.01 | 0.01 | 0.01 | 86 | 1009.0 |
| 20260507000508 | 78 | 282 | 2.0 | 11.0 | 0.00 | 0.00 | 0.00 | 85 | 1008.8 |
| 20260507000019 | 81 | 255 | 4.0 | 10.0 | 0.00 | 0.00 | 0.00 | 84 | 1008.8 |
| 20260506235509 | 83 | 9 | 0.0 | 6.0 | 0.00 | 0.00 | 0.00 | 87 | 1008.6 |
| 20260506235009 | 84 | 31 | 1.0 | 6.0 | 0.00 | 0.00 | 0.00 | 86 | 1008.5 |
| 20260506234524 | 85 | 17 | 1.0 | 4.0 | 0.00 | 0.00 | 0.00 | 85 | 1008.5 |
| 20260506234011 | 86 | 34 | 1.0 | 4.0 | 0.00 | 0.00 | 0.00 | 83 | 1008.5 |
| 20260506233507 | 86 | 319 | 0.0 | 3.0 | 0.00 | 0.00 | 0.00 | 81 | 1008.5 |
| 20260506233014 | 86 | 247 | 0.0 | 4.0 | 0.00 | 0.00 | 0.00 | 81 | 1008.4 |
| 20260506232514 | 86 | 9 | 1.0 | 4.0 | 0.00 | 0.00 | 0.00 | 81 | 1008.3 |
| 20260506232008 | 86 | 183 | 1.0 | 4.0 | 0.00 | 0.00 | 0.00 | 81 | 1008.3 |
| 20260506231525 | 86 | 51 | 0.0 | 4.0 | 0.00 | 0.00 | 0.00 | 80 | 1008.2 |
| 20260506231014 | 86 | 236 | 0.0 | 4.0 | 0.00 | 0.00 | 0.00 | 80 | 1008.0 |
| 20260506230509 | 86 | 168 | 1.0 | 4.0 | 0.00 | 0.00 | 0.00 | 80 | 1008.1 |
| 20260506230031 | 87 | 51 | 0.0 | 5.0 | 0.00 | 0.00 | 0.00 | 80 | 1008.1 |
| 20260506225506 | 87 | 153 | 1.0 | 5.0 | 0.00 | 0.00 | 0.00 | 80 | 1008.1 |
| 20260506225006 | 87 | 294 | 1.0 | 6.0 | 0.00 | 0.00 | 0.00 | 80 | 1008.1 |
| 20260506224517 | 87 | 157 | 2.0 | 6.0 | 0.00 | 0.00 | 0.00 | 79 | 1008.1 |
| 20260506224007 | 88 | 61 | 1.0 | 6.0 | 0.00 | 0.00 | 0.00 | 77 | 1008.1 |
| 20260506223509 | 88 | 309 | 2.0 | 6.0 | 0.00 | 0.00 | 0.00 | 77 | 1008.1 |
| 20260506223026 | 89 | 184 | 1.0 | 6.0 | 0.00 | 0.00 | 0.00 | 77 | 1008.1 |
| 20260506222509 | 89 | 194 | 3.0 | 6.0 | 0.00 | 0.00 | 0.00 | 77 | 1008.1 |
| 20260506222015 | 89 | 165 | 2.0 | 6.0 | 0.00 | 0.00 | 0.00 | 77 | 1008.1 |
| 20260506221528 | 89 | 255 | 2.0 | 5.0 | 0.00 | 0.00 | 0.00 | 77 | 1008.0 |
| 20260506221015 | 89 | 186 | 1.0 | 5.0 | 0.00 | 0.00 | 0.00 | 78 | 1008.0 |
| 20260506220510 | 89 | 273 | 2.0 | 6.0 | 0.00 | 0.00 | 0.00 | 77 | 1008.0 |
| 20260506220032 | 90 | 196 | 2.0 | 7.0 | 0.00 | 0.00 | 0.00 | 78 | 1007.8 |
| 20260506215510 | 90 | 267 | 2.0 | 7.0 | 0.00 | 0.00 | 0.00 | 79 | 1007.8 |
| 20260506215010 | 89 | 217 | 3.0 | 9.0 | 0.00 | 0.00 | 0.00 | 80 | 1007.8 |
| 20260506214515 | 88 | 273 | 1.0 | 9.0 | 0.00 | 0.00 | 0.00 | 81 | 1008.0 |
| 20260506214002 | 88 | 166 | 2.0 | 9.0 | 0.00 | 0.00 | 0.00 | 79 | 1008.0 |
| 20260506213506 | 88 | 146 | 2.0 | 7.0 | 0.00 | 0.00 | 0.00 | 79 | 1008.1 |
| 20260506213016 | 87 | 250 | 1.0 | 7.0 | 0.00 | 0.00 | 0.00 | 80 | 1008.1 |
| 20260506212506 | 88 | 259 | 2.0 | 9.0 | 0.00 | 0.00 | 0.00 | 80 | 1007.9 |
| 20260506212010 | 88 | 325 | 4.0 | 9.0 | 0.00 | 0.00 | 0.00 | 80 | 1008.0 |
| 20260506211524 | 88 | 237 | 2.0 | 10.0 | 0.00 | 0.00 | 0.00 | 80 | 1008.0 |
| 20260506211010 | 88 | 186 | 3.0 | 10.0 | 0.00 | 0.00 | 0.00 | 81 | 1008.1 |
| 20260506210507 | 88 | 236 | 2.0 | 11.0 | 0.00 | 0.00 | 0.00 | 81 | 1008.2 |
| 20260506210013 | 88 | 193 | 2.0 | 12.0 | 0.00 | 0.00 | 0.00 | 80 | 1008.2 |
| 20260506205508 | 88 | 173 | 4.0 | 12.0 | 0.00 | 0.00 | 0.00 | 78 | 1008.3 |
| 20260506205006 | 88 | 178 | 5.0 | 11.0 | 0.00 | 0.00 | 0.00 | 79 | 1008.4 |
| 20260506204521 | 88 | 182 | 6.0 | 11.0 | 0.00 | 0.00 | 0.00 | 80 | 1008.4 |
| 20260506204010 | 88 | 165 | 2.0 | 8.0 | 0.00 | 0.00 | 0.00 | 81 | 1008.4 |
| 20260506203517 | 87 | 229 | 2.0 | 8.0 | 0.00 | 0.00 | 0.00 | 81 | 1008.5 |
| 20260506203027 | 87 | 227 | 2.0 | 12.0 | 0.00 | 0.00 | 0.00 | 81 | 1008.5 |
| 20260506202503 | 87 | 159 | 3.0 | 12.0 | 0.00 | 0.00 | 0.00 | 82 | 1008.6 |
| 20260506202007 | 87 | 159 | 5.0 | 11.0 | 0.00 | 0.00 | 0.00 | 82 | 1008.6 |
| 20260506201512 | 86 | 213 | 5.0 | 11.0 | 0.00 | 0.00 | 0.00 | 82 | 1008.7 |
| 20260506201006 | 86 | 167 | 2.0 | 12.0 | 0.00 | 0.00 | 0.00 | 83 | 1008.7 |
| 20260506200509 | 86 | 194 | 4.0 | 12.0 | 0.00 | 0.00 | 0.00 | 81 | 1008.7 |
| 20260506200021 | 87 | 184 | 3.0 | 11.0 | 0.00 | 0.00 | 0.00 | 80 | 1008.7 |
| 20260506195510 | 87 | 157 | 5.0 | 10.0 | 0.00 | 0.00 | 0.00 | 79 | 1008.7 |
| 20260506195010 | 88 | 186 | 4.0 | 9.0 | 0.00 | 0.00 | 0.00 | 78 | 1008.8 |
| 20260506194544 | 88 | 205 | 4.0 | 12.0 | 0.00 | 0.00 | 0.00 | 79 | 1008.7 |
| 20260506194006 | 88 | 137 | 3.0 | 12.0 | 0.00 | 0.00 | 0.00 | 79 | 1008.8 |
| 20260506193505 | 88 | 193 | 4.0 | 11.0 | 0.00 | 0.00 | 0.00 | 80 | 1008.8 |
| 20260506193015 | 88 | 171 | 4.0 | 10.0 | 0.00 | 0.00 | 0.00 | 80 | 1008.9 |
| 20260506192507 | 88 | 142 | 4.0 | 10.0 | 0.00 | 0.00 | 0.00 | 79 | 1008.9 |
| 20260506192013 | 88 | 173 | 2.0 | 8.0 | 0.00 | 0.00 | 0.00 | 82 | 1008.9 |
| 20260506191522 | 87 | 202 | 3.0 | 12.0 | 0.00 | 0.00 | 0.00 | 83 | 1009.1 |
| 20260506191008 | 87 | 171 | 4.0 | 12.0 | 0.00 | 0.00 | 0.00 | 81 | 1009.1 |
| 20260506190505 | 87 | 173 | 3.0 | 11.0 | 0.00 | 0.00 | 0.00 | 82 | 1009.1 |
| 20260506190008 | 87 | 139 | 4.0 | 11.0 | 0.00 | 0.00 | 0.00 | 81 | 1009.1 |
| 20260506185506 | 87 | 178 | 5.0 | 11.0 | 0.00 | 0.00 | 0.00 | 83 | 1009.2 |
| 20260506185011 | 86 | 178 | 3.0 | 12.0 | 0.00 | 0.00 | 0.00 | 84 | 1009.3 |
| 20260506184525 | 86 | 139 | 2.0 | 12.0 | 0.00 | 0.00 | 0.00 | 83 | 1009.3 |
| 20260506184009 | 85 | 202 | 3.0 | 7.0 | 0.00 | 0.00 | 0.00 | 82 | 1009.4 |
| 20260506183511 | 86 | 161 | 2.0 | 10.0 | 0.00 | 0.00 | 0.00 | 82 | 1009.4 |
| 20260506183025 | 86 | 178 | 2.0 | 10.0 | 0.00 | 0.00 | 0.00 | 82 | 1009.4 |
| 20260506182503 | 86 | 161 | 2.0 | 8.0 | 0.00 | 0.00 | 0.00 | 83 | 1009.5 |
| 20260506182005 | 86 | 153 | 1.0 | 8.0 | 0.00 | 0.00 | 0.00 | 83 | 1009.6 |
| 20260506181514 | 86 | 159 | 4.0 | 8.0 | 0.00 | 0.00 | 0.00 | 84 | 1009.8 |
| 20260506181007 | 85 | 170 | 2.0 | 5.0 | 0.00 | 0.00 | 0.00 | 84 | 1009.8 |
| 20260506180507 | 85 | 196 | 2.0 | 7.0 | 0.00 | 0.00 | 0.00 | 85 | 1010.0 |
| 20260506180022 | 85 | 242 | 2.0 | 7.0 | 0.00 | 0.00 | 0.00 | 84 | 1010.1 |
| 20260506175508 | 85 | 51 | 2.0 | 5.0 | 0.00 | 0.00 | 0.00 | 85 | 1010.2 |
| 20260506175010 | 84 | 124 | 1.0 | 8.0 | 0.00 | 0.00 | 0.00 | 85 | 1010.4 |
| 20260506174509 | 84 | 247 | 1.0 | 8.0 | 0.00 | 0.00 | 0.00 | 85 | 1010.4 |
| 20260506174010 | 84 | 157 | 1.0 | 5.0 | 0.00 | 0.00 | 0.00 | 86 | 1010.5 |
| 20260506173505 | 84 | 247 | 2.0 | 5.0 | 0.00 | 0.00 | 0.00 | 86 | 1010.6 |
| 20260506173018 | 83 | 137 | 1.0 | 6.0 | 0.00 | 0.00 | 0.00 | 86 | 1010.8 |
| 20260506172507 | 83 | 161 | 2.0 | 6.0 | 0.00 | 0.00 | 0.00 | 86 | 1010.7 |
| 20260506172008 | 83 | 153 | 2.0 | 7.0 | 0.00 | 0.00 | 0.00 | 86 | 1010.8 |
| 20260506171525 | 83 | 190 | 1.0 | 7.0 | 0.00 | 0.00 | 0.00 | 85 | 1010.7 |
| 20260506171009 | 83 | 157 | 1.0 | 6.0 | 0.00 | 0.00 | 0.00 | 86 | 1010.9 |
| 20260506170507 | 83 | 193 | 1.0 | 6.0 | 0.00 | 0.00 | 0.00 | 86 | 1010.8 |
| 20260506170011 | 83 | 168 | 3.0 | 9.0 | 0.00 | 0.00 | 0.00 | 86 | 1010.9 |
| 20260506165510 | 83 | 165 | 2.0 | 9.0 | 0.00 | 0.00 | 0.00 | 87 | 1010.8 |
| 20260506165013 | 83 | 144 | 4.0 | 8.0 | 0.00 | 0.00 | 0.00 | 88 | 1010.9 |
| 20260506164524 | 82 | 148 | 1.0 | 6.0 | 0.00 | 0.00 | 0.00 | 88 | 1010.8 |
| 20260506164011 | 82 | 178 | 2.0 | 7.0 | 0.00 | 0.00 | 0.00 | 88 | 1010.7 |
| 20260506163510 | 81 | 146 | 3.0 | 10.0 | 0.00 | 0.00 | 0.00 | 88 | 1010.7 |
| 20260506163027 | 81 | 175 | 4.0 | 10.0 | 0.00 | 0.00 | 0.00 | 87 | 1010.8 |
| 20260506162507 | 81 | 155 | 3.0 | 12.0 | 0.00 | 0.00 | 0.00 | 87 | 1010.6 |
| 20260506162010 | 81 | 193 | 3.0 | 12.0 | 0.00 | 0.00 | 0.00 | 87 | 1010.6 |
| 20260506161516 | 81 | 199 | 5.0 | 9.0 | 0.00 | 0.00 | 0.00 | 87 | 1010.4 |
| 20260506161011 | 81 | 198 | 2.0 | 9.0 | 0.00 | 0.00 | 0.00 | 87 | 1010.4 |
| 20260506160507 | 81 | 157 | 3.0 | 9.0 | 0.00 | 0.00 | 0.00 | 87 | 1010.4 |
| 20260506160021 | 81 | 171 | 3.0 | 9.0 | 0.00 | 0.00 | 0.00 | 87 | 1010.3 |
| 20260506155508 | 81 | 171 | 3.0 | 7.0 | 0.00 | 0.00 | 0.00 | 87 | 1010.3 |
| 20260506155009 | 81 | 165 | 2.0 | 9.0 | 0.00 | 0.00 | 0.00 | 87 | 1010.4 |
| 20260506154530 | 81 | 200 | 3.0 | 9.0 | 0.00 | 0.00 | 0.00 | 88 | 1010.3 |
| 20260506154006 | 81 | 163 | 3.0 | 10.0 | 0.00 | 0.00 | 0.00 | 87 | 1010.3 |
| 20260506153510 | 81 | 238 | 3.0 | 10.0 | 0.00 | 0.00 | 0.00 | 87 | 1010.4 |
| 20260506153016 | 81 | 160 | 2.0 | 10.0 | 0.00 | 0.00 | 0.00 | 88 | 1010.3 |
| 20260506152507 | 80 | 205 | 3.0 | 6.0 | 0.00 | 0.00 | 0.00 | 89 | 1010.2 |
| 20260506152011 | 80 | 191 | 1.0 | 6.0 | 0.00 | 0.00 | 0.00 | 89 | 1010.0 |
| 20260506151526 | 80 | 170 | 1.0 | 7.0 | 0.00 | 0.00 | 0.00 | 89 | 1010.0 |
| 20260506151012 | 80 | 148 | 1.0 | 7.0 | 0.00 | 0.00 | 0.00 | 89 | 1009.8 |
| 20260506150511 | 80 | 178 | 2.0 | 8.0 | 0.00 | 0.00 | 0.00 | 89 | 1009.8 |